User: anonymous   Login
Location: Montr�al
(45.5000°N, 73.5830°W)
Time: 04:49:17
(UTC-05:00)
Language:

Cosmos 2369 - Orbit

View from above orbital plane
View from above orbital plane
View from above satellite
View from above satellite

Ground track
Ground track

The orbit data is extracted from the following two-line orbital elements,

1 26069U 00006A   16041.90780273 +.00000121 +00000-0 +89831-4 0  9994
2 26069 070.9983 310.3060 0013344 260.2851 099.6764 14.13334599089913
Epoch (UTC): 10 February 2016 21:47:14
Eccentricity: 0.0013344
inclination: 70.9983°
perigee height: 838 km
apogee height: 857 km
right ascension of ascending node: 310.3060°
argument of perigee: 260.2851°
revolutions per day: 14.13334599
mean anomaly at epoch: 99.6764°
orbit number at epoch: 8991

The dashed part of the orbit path shows where the satellite is in the earth's shadow,  

DLR